Voltar ao catálogo

STARLINK-34039

AtivoComunicaçõesVLEO
NORAD 63946·PAYLOAD·🇺🇸 United States

Lançado May 13, 2025 de Vandenberg Space Force Base

Loading…

Próximas Passagens (próximas 24 horas)

TLE

AtualizadoSource: CelesTrak SupGP

Época: Sep 14, 2026, 20:56 UTC

1 63946C 25098W   26257.87270833 -.00038040  00000+0 -13231-2 0  2577
2 63946  70.0000 155.6134 0003267 268.6289 198.1340 15.29603701    12

Acompanhe STARLINK-34039 em tempo real com AllMySat

Download on the App Store